ASA76 KDEN-KSLC

Flight info

Callsign ASA76
Flight time 1h 3m
Altitude 34000
Route ZIMMR4 CHNGY EKR RACER JAZZZ1
Aircraft B38M/M-SDE1FGHILORVWXY/HB1

Departure

Time 2026-05-08 04:30
Airport Denver International Airport (KDEN)

Arrival

Time 2026-05-08 05:33
Airport Salt Lake City International Airport (KSLC)
Time Latitude Longitude Altitude Speed Heading
2026-05-08 04:09 39.85803 -104.67853 5381 ft 0 kts 360°
2026-05-08 04:18 39.85788 -104.67853 5376 ft 2 kts 360°
2026-05-08 04:19 39.85772 -104.67853 5378 ft 2 kts 359°
2026-05-08 04:19 39.85755 -104.67853 5380 ft 2 kts 360°
2026-05-08 04:19 39.85739 -104.67853 5378 ft 2 kts
2026-05-08 04:19 39.85729 -104.67853 5378 ft 1 kts
2026-05-08 04:20 39.85726 -104.67853 5377 ft 0 kts
2026-05-08 04:22 39.85727 -104.67853 5380 ft 0 kts
2026-05-08 04:23 39.85734 -104.67858 5377 ft 1 kts 321°
2026-05-08 04:23 39.85736 -104.67866 5377 ft 2 kts 281°
2026-05-08 04:23 39.85736 -104.67935 5378 ft 11 kts 271°
2026-05-08 04:23 39.85733 -104.67991 5378 ft 0 kts 252°
2026-05-08 04:24 39.85720 -104.68014 5380 ft 10 kts 221°
2026-05-08 04:24 39.85651 -104.68116 5381 ft 19 kts 239°
2026-05-08 04:24 39.85600 -104.68297 5377 ft 29 kts 267°
2026-05-08 04:24 39.85502 -104.68402 5377 ft 25 kts 180°
2026-05-08 04:25 39.85316 -104.68403 5382 ft 28 kts 180°
2026-05-08 04:25 39.85184 -104.68436 5378 ft 9 kts 243°
2026-05-08 04:25 39.85182 -104.68458 5378 ft 5 kts 274°
2026-05-08 04:25 39.85206 -104.68563 5374 ft 14 kts 270°
2026-05-08 04:26 39.85203 -104.68717 5367 ft 21 kts 268°
2026-05-08 04:26 39.85198 -104.68965 5359 ft 28 kts 268°
2026-05-08 04:26 39.85198 -104.69168 5352 ft 25 kts 269°
2026-05-08 04:26 39.85202 -104.69413 5339 ft 30 kts 270°
2026-05-08 04:27 39.85215 -104.69644 5336 ft 17 kts 307°
2026-05-08 04:27 39.85261 -104.69660 5338 ft 0 kts
2026-05-08 04:29 39.85263 -104.69660 5338 ft 2 kts
2026-05-08 04:29 39.85463 -104.69656 5339 ft 67 kts
2026-05-08 04:29 39.86190 -104.69648 5335 ft 140 kts
2026-05-08 04:29 39.87367 -104.69627 5409 ft 190 kts
2026-05-08 04:30 39.88690 -104.69615 6398 ft 190 kts 358°
2026-05-08 04:30 39.90034 -104.69599 7254 ft 195 kts 358°
2026-05-08 04:30 39.91403 -104.69790 7924 ft 206 kts 337°
2026-05-08 04:30 39.92590 -104.70963 8379 ft 229 kts 304°
2026-05-08 04:31 39.93141 -104.72976 8906 ft 254 kts 275°
2026-05-08 04:31 39.93128 -104.75363 9596 ft 272 kts 272°
2026-05-08 04:31 39.93143 -104.77866 9897 ft 277 kts 273°
2026-05-08 04:31 39.93158 -104.80376 9972 ft 277 kts 273°
2026-05-08 04:32 39.93172 -104.82889 9979 ft 277 kts 273°
2026-05-08 04:32 39.93186 -104.85394 9973 ft 277 kts 273°
2026-05-08 04:32 39.93199 -104.87905 9970 ft 277 kts 273°
2026-05-08 04:32 39.93218 -104.90426 10001 ft 279 kts 274°
2026-05-08 04:33 39.93278 -104.92932 10809 ft 276 kts 274°
2026-05-08 04:33 39.93337 -104.95458 11729 ft 282 kts 275°
2026-05-08 04:33 39.93395 -104.98021 12728 ft 284 kts 275°
2026-05-08 04:33 39.93452 -105.00609 13683 ft 288 kts 276°
2026-05-08 04:34 39.93512 -105.03233 14566 ft 292 kts 276°
2026-05-08 04:34 39.93572 -105.05895 15384 ft 295 kts 276°
2026-05-08 04:34 39.93633 -105.08584 16213 ft 298 kts 276°
2026-05-08 04:34 39.93694 -105.11307 17031 ft 302 kts 276°
2026-05-08 04:35 39.93754 -105.14057 17822 ft 306 kts 276°
2026-05-08 04:35 39.93816 -105.16849 18569 ft 309 kts 276°
2026-05-08 04:35 39.93876 -105.19633 19210 ft 313 kts 276°
2026-05-08 04:35 39.93973 -105.22485 19863 ft 315 kts 280°
2026-05-08 04:36 39.94210 -105.25336 20454 ft 319 kts 280°
2026-05-08 04:36 39.94438 -105.28230 21078 ft 322 kts 280°
2026-05-08 04:36 39.94661 -105.31151 21688 ft 326 kts 279°
2026-05-08 04:36 39.94883 -105.34107 22278 ft 330 kts 279°
2026-05-08 04:37 39.95105 -105.37101 22875 ft 333 kts 279°
2026-05-08 04:37 39.95339 -105.40139 23262 ft 343 kts 280°
2026-05-08 04:37 39.95592 -105.43323 23326 ft 361 kts 279°
2026-05-08 04:37 39.95852 -105.46648 23489 ft 375 kts 279°
2026-05-08 04:38 39.96119 -105.50074 23926 ft 380 kts 279°
2026-05-08 04:38 39.96382 -105.53461 24434 ft 382 kts 279°
2026-05-08 04:38 39.96648 -105.56925 24900 ft 385 kts 279°
2026-05-08 04:38 39.96915 -105.60413 25444 ft 388 kts 279°
2026-05-08 04:39 39.97183 -105.63925 25934 ft 391 kts 279°
2026-05-08 04:39 39.97391 -105.67454 26559 ft 388 kts 278°
2026-05-08 04:39 39.97563 -105.70964 27147 ft 389 kts 278°
2026-05-08 04:39 39.97742 -105.74504 27573 ft 393 kts 278°
2026-05-08 04:40 39.97923 -105.78068 28035 ft 395 kts 278°
2026-05-08 04:40 39.98104 -105.81662 28488 ft 398 kts 278°
2026-05-08 04:40 39.98286 -105.85273 28911 ft 401 kts 278°
2026-05-08 04:40 39.98469 -105.88916 29342 ft 404 kts 278°
2026-05-08 04:41 39.98651 -105.92588 29742 ft 406 kts 278°
2026-05-08 04:41 39.98834 -105.96284 30151 ft 409 kts 278°
2026-05-08 04:41 39.99016 -105.99995 30507 ft 412 kts 278°
2026-05-08 04:41 39.99196 -106.03689 30852 ft 414 kts 278°
2026-05-08 04:42 39.99378 -106.07439 31180 ft 416 kts 278°
2026-05-08 04:42 39.99559 -106.11212 31570 ft 416 kts 279°
2026-05-08 04:42 39.99738 -106.14966 32027 ft 414 kts 279°
2026-05-08 04:42 39.99917 -106.18715 32481 ft 413 kts 279°
2026-05-08 04:43 40.00092 -106.22449 32938 ft 411 kts 279°
2026-05-08 04:43 40.00267 -106.26166 33401 ft 410 kts 279°
2026-05-08 04:43 40.00438 -106.29864 33842 ft 408 kts 279°
2026-05-08 04:43 40.00610 -106.33574 34067 ft 410 kts 279°
2026-05-08 04:44 40.00947 -106.40951 34040 ft 405 kts 279°
2026-05-08 04:44 40.01274 -106.48253 34045 ft 405 kts 279°
2026-05-08 04:45 40.01596 -106.55593 34042 ft 405 kts 279°
2026-05-08 04:45 40.01913 -106.62925 34033 ft 404 kts 279°
2026-05-08 04:46 40.02224 -106.70250 34028 ft 404 kts 279°
2026-05-08 04:46 40.02531 -106.77567 34034 ft 404 kts 279°
2026-05-08 04:47 40.02834 -106.84889 34027 ft 404 kts 279°
2026-05-08 04:47 40.03131 -106.92209 34030 ft 403 kts 279°
2026-05-08 04:48 40.03424 -106.99526 34024 ft 404 kts 279°
2026-05-08 04:48 40.03713 -107.06849 34033 ft 404 kts 279°
2026-05-08 04:49 40.03995 -107.14126 34022 ft 404 kts 279°
2026-05-08 04:49 40.04275 -107.21466 34014 ft 404 kts 278°
2026-05-08 04:50 40.04550 -107.28789 34032 ft 405 kts 278°
2026-05-08 04:50 40.04821 -107.36133 34026 ft 405 kts 278°
2026-05-08 04:51 40.05087 -107.43476 34015 ft 405 kts 278°
2026-05-08 04:51 40.05349 -107.50822 34028 ft 405 kts 278°
2026-05-08 04:52 40.05604 -107.58129 34049 ft 405 kts 278°
2026-05-08 04:52 40.05856 -107.65476 34066 ft 405 kts 278°
2026-05-08 04:53 40.06104 -107.72822 34106 ft 405 kts 278°
2026-05-08 04:53 40.06348 -107.80180 34112 ft 405 kts 278°
2026-05-08 04:54 40.06588 -107.87539 34118 ft 406 kts 278°
2026-05-08 04:54 40.06878 -107.94900 34115 ft 405 kts 279°
2026-05-08 04:55 40.07219 -108.02252 34097 ft 405 kts 279°
2026-05-08 04:55 40.07551 -108.09595 34070 ft 405 kts 279°
2026-05-08 04:56 40.07879 -108.16959 34041 ft 406 kts 279°
2026-05-08 04:56 40.08199 -108.24269 33998 ft 406 kts 279°
2026-05-08 04:57 40.08517 -108.31622 33950 ft 406 kts 279°
2026-05-08 04:57 40.08830 -108.38984 33937 ft 406 kts 279°
2026-05-08 04:58 40.09140 -108.46354 33938 ft 406 kts 279°
2026-05-08 04:58 40.09444 -108.53720 33935 ft 407 kts 279°
2026-05-08 04:59 40.09744 -108.61101 33921 ft 407 kts 279°
2026-05-08 04:59 40.10040 -108.68487 33940 ft 407 kts 279°
2026-05-08 05:00 40.10331 -108.75873 33927 ft 407 kts 279°
2026-05-08 05:00 40.10619 -108.83275 33931 ft 408 kts 279°
2026-05-08 05:01 40.10900 -108.90626 33932 ft 408 kts 279°
2026-05-08 05:01 40.11180 -108.98049 33926 ft 408 kts 279°
2026-05-08 05:02 40.11456 -109.05461 33933 ft 409 kts 279°
2026-05-08 05:02 40.11725 -109.12843 33927 ft 408 kts 279°
2026-05-08 05:03 40.11991 -109.20260 33931 ft 409 kts 279°
2026-05-08 05:03 40.12253 -109.27679 33926 ft 409 kts 279°
2026-05-08 05:04 40.12512 -109.35109 33937 ft 409 kts 279°
2026-05-08 05:04 40.12763 -109.42543 33961 ft 409 kts 279°
2026-05-08 05:05 40.12968 -109.48725 33954 ft 409 kts 279°
2026-05-08 05:05 40.13213 -109.56171 33949 ft 410 kts 279°
2026-05-08 05:06 40.13491 -109.64833 33951 ft 410 kts 279°
2026-05-08 05:06 40.13687 -109.71076 33951 ft 410 kts 279°
2026-05-08 05:07 40.13915 -109.78477 33941 ft 410 kts 279°
2026-05-08 05:07 40.14141 -109.85941 33936 ft 410 kts 279°
2026-05-08 05:08 40.14360 -109.93389 33940 ft 410 kts 279°
2026-05-08 05:08 40.14575 -110.00821 33872 ft 402 kts 279°
2026-05-08 05:09 40.14679 -110.04447 33453 ft 397 kts 279°
2026-05-08 05:09 40.14782 -110.08058 32887 ft 396 kts 279°
2026-05-08 05:09 40.14880 -110.11646 32398 ft 394 kts 278°
2026-05-08 05:09 40.14851 -110.15241 31841 ft 395 kts 276°
2026-05-08 05:10 40.14815 -110.18775 31394 ft 392 kts 276°
2026-05-08 05:10 40.14757 -110.25852 30506 ft 387 kts 276°
2026-05-08 05:10 40.14730 -110.29364 30051 ft 385 kts 276°
2026-05-08 05:11 40.14702 -110.32861 29537 ft 383 kts 275°
2026-05-08 05:11 40.14673 -110.36338 29079 ft 380 kts 275°
2026-05-08 05:11 40.14643 -110.39774 28646 ft 377 kts 275°
2026-05-08 05:11 40.14613 -110.43192 28213 ft 374 kts 275°
2026-05-08 05:12 40.14582 -110.46580 27806 ft 371 kts 275°
2026-05-08 05:12 40.14550 -110.49941 27390 ft 368 kts 275°
2026-05-08 05:12 40.14517 -110.53283 26985 ft 366 kts 275°
2026-05-08 05:12 40.14484 -110.56560 26589 ft 364 kts 275°
2026-05-08 05:13 40.14450 -110.59854 26198 ft 362 kts 275°
2026-05-08 05:13 40.14415 -110.63133 25798 ft 360 kts 275°
2026-05-08 05:13 40.14380 -110.66397 25416 ft 357 kts 275°
2026-05-08 05:13 40.14344 -110.69632 25032 ft 356 kts 275°
2026-05-08 05:14 40.14306 -110.72858 24659 ft 354 kts 275°
2026-05-08 05:14 40.14269 -110.76081 24273 ft 353 kts 274°
2026-05-08 05:14 40.14231 -110.79276 23902 ft 351 kts 274°
2026-05-08 05:14 40.14191 -110.82468 23512 ft 349 kts 274°
2026-05-08 05:15 40.14152 -110.85635 23087 ft 347 kts 274°
2026-05-08 05:15 40.14111 -110.88778 22702 ft 344 kts 274°
2026-05-08 05:15 40.14071 -110.91896 22332 ft 341 kts 274°
2026-05-08 05:15 40.14030 -110.94980 21978 ft 337 kts 274°
2026-05-08 05:16 40.13987 -110.98041 21610 ft 335 kts 274°
2026-05-08 05:16 40.13946 -111.01040 21258 ft 333 kts 274°
2026-05-08 05:16 40.13904 -111.04050 20905 ft 330 kts 274°
2026-05-08 05:16 40.13860 -111.07039 20550 ft 328 kts 274°
2026-05-08 05:17 40.13817 -111.10011 20215 ft 326 kts 274°
2026-05-08 05:17 40.13773 -111.12962 19864 ft 324 kts 274°
2026-05-08 05:17 40.13730 -111.15899 19517 ft 322 kts 274°
2026-05-08 05:17 40.13685 -111.18826 19172 ft 321 kts 273°
2026-05-08 05:18 40.13638 -111.21737 18803 ft 320 kts 273°
2026-05-08 05:18 40.13589 -111.24644 18456 ft 320 kts 273°
2026-05-08 05:18 40.13539 -111.27544 18085 ft 318 kts 273°
2026-05-08 05:18 40.13490 -111.30432 17727 ft 317 kts 273°
2026-05-08 05:19 40.13440 -111.33297 17378 ft 314 kts 273°
2026-05-08 05:19 40.13390 -111.36141 17038 ft 311 kts 273°
2026-05-08 05:19 40.13340 -111.38963 16709 ft 309 kts 272°
2026-05-08 05:19 40.13290 -111.41731 16380 ft 308 kts 272°
2026-05-08 05:20 40.13239 -111.44514 16051 ft 304 kts 272°
2026-05-08 05:20 40.13188 -111.47259 15727 ft 301 kts 272°
2026-05-08 05:20 40.13137 -111.49985 15406 ft 299 kts 272°
2026-05-08 05:20 40.13087 -111.52701 15104 ft 298 kts 273°
2026-05-08 05:21 40.13310 -111.55326 15001 ft 284 kts 290°
2026-05-08 05:21 40.14090 -111.57616 14936 ft 273 kts 305°
2026-05-08 05:21 40.15318 -111.59563 14859 ft 283 kts 315°
2026-05-08 05:21 40.16628 -111.61528 14782 ft 289 kts 312°
2026-05-08 05:22 40.17951 -111.63529 14708 ft 292 kts 312°
2026-05-08 05:22 40.19291 -111.65533 14638 ft 293 kts 313°
2026-05-08 05:22 40.20636 -111.67531 14567 ft 293 kts 313°
2026-05-08 05:22 40.21985 -111.69524 14496 ft 292 kts 313°
2026-05-08 05:23 40.23338 -111.71520 14426 ft 292 kts 313°
2026-05-08 05:23 40.24688 -111.73509 14352 ft 292 kts 313°
2026-05-08 05:23 40.26037 -111.75496 14186 ft 292 kts 313°
2026-05-08 05:23 40.27385 -111.77485 13911 ft 291 kts 313°
2026-05-08 05:24 40.28726 -111.79461 13570 ft 289 kts 313°
2026-05-08 05:24 40.30045 -111.81400 13227 ft 287 kts 310°
2026-05-08 05:24 40.31351 -111.83331 13057 ft 278 kts 310°
2026-05-08 05:24 40.32615 -111.85199 12905 ft 270 kts 310°
2026-05-08 05:25 40.33844 -111.87010 12744 ft 263 kts 311°
2026-05-08 05:25 40.35331 -111.88404 12415 ft 267 kts 333°
2026-05-08 05:25 40.37016 -111.89411 12107 ft 265 kts 332°
2026-05-08 05:25 40.38685 -111.90425 11794 ft 264 kts 332°
2026-05-08 05:26 40.40353 -111.91428 11482 ft 263 kts 333°
2026-05-08 05:26 40.42023 -111.92417 11170 ft 263 kts 335°
2026-05-08 05:26 40.43758 -111.93150 10899 ft 262 kts 344°
2026-05-08 05:26 40.45555 -111.93565 10509 ft 264 kts 349°
2026-05-08 05:27 40.47393 -111.93850 10061 ft 267 kts 351°
2026-05-08 05:27 40.49201 -111.94072 9669 ft 255 kts 352°
2026-05-08 05:27 40.50925 -111.94270 9296 ft 243 kts 352°
2026-05-08 05:27 40.52570 -111.94460 8966 ft 231 kts 353°
2026-05-08 05:28 40.54134 -111.94638 8647 ft 220 kts 353°
2026-05-08 05:28 40.55619 -111.94807 8372 ft 207 kts 353°
2026-05-08 05:28 40.57002 -111.94965 8108 ft 192 kts 353°
2026-05-08 05:28 40.58299 -111.95114 7876 ft 184 kts 353°
2026-05-08 05:29 40.59567 -111.95260 7630 ft 182 kts 353°
2026-05-08 05:29 40.60811 -111.95403 7396 ft 180 kts 353°
2026-05-08 05:29 40.62020 -111.95540 7204 ft 168 kts 352°
2026-05-08 05:29 40.63161 -111.95671 6988 ft 161 kts 353°
2026-05-08 05:30 40.64270 -111.95799 6801 ft 160 kts 353°
2026-05-08 05:30 40.65386 -111.95927 6624 ft 162 kts 353°
2026-05-08 05:30 40.66515 -111.96056 6430 ft 163 kts 353°
2026-05-08 05:30 40.67652 -111.96187 6241 ft 164 kts 353°
2026-05-08 05:31 40.68793 -111.96317 6037 ft 165 kts 354°
2026-05-08 05:31 40.69940 -111.96449 5821 ft 166 kts 354°
2026-05-08 05:31 40.71090 -111.96581 5602 ft 166 kts 354°
2026-05-08 05:31 40.72233 -111.96713 5366 ft 164 kts 354°
2026-05-08 05:32 40.73366 -111.96843 5121 ft 163 kts 354°
2026-05-08 05:32 40.74497 -111.96973 4885 ft 163 kts 354°
2026-05-08 05:32 40.75636 -111.97105 4653 ft 164 kts 354°
2026-05-08 05:32 40.76780 -111.97236 4413 ft 167 kts 355°
2026-05-08 05:33 40.77926 -111.97368 4237 ft 157 kts 355°
2026-05-08 05:33 40.78837 -111.97472 4241 ft 98 kts 355°
2026-05-08 05:33 40.79302 -111.97528 4237 ft 37 kts 352°
2026-05-08 05:33 40.79471 -111.97598 4235 ft 21 kts 331°
2026-05-08 05:34 40.79532 -111.97649 4233 ft 9 kts 319°
2026-05-08 05:34 40.79543 -111.97720 4233 ft 4 kts 249°
2026-05-08 05:34 40.79543 -111.97721 4233 ft 0 kts 248°
2026-05-08 05:34 40.79536 -111.97738 4233 ft 8 kts 233°
2026-05-08 05:35 40.79443 -111.97760 4235 ft 19 kts 175°
2026-05-08 05:35 40.79322 -111.97746 4237 ft 10 kts 176°
2026-05-08 05:35 40.79277 -111.97836 4236 ft 20 kts 264°
2026-05-08 05:35 40.79263 -111.98043 4237 ft 24 kts 265°
2026-05-08 05:36 40.79248 -111.98271 4236 ft 25 kts 265°
2026-05-08 05:36 40.79235 -111.98461 4236 ft 20 kts 264°
2026-05-08 05:36 40.79223 -111.98648 4236 ft 21 kts 265°
2026-05-08 05:36 40.79210 -111.98836 4237 ft 19 kts 264°
2026-05-08 05:37 40.79162 -111.98960 4237 ft 16 kts 186°
2026-05-08 05:37 40.79055 -111.98950 4234 ft 8 kts 174°
2026-05-08 05:37 40.78983 -111.98941 4234 ft 15 kts 175°